Location: Great Snoring
(52.8667°N, 0.8833°E)
Time: 18:37:51
(UTC+00:00)

SL-24 DEB - Pass Details

Date: 19 May 2025
Orbit: 638 x 665 km, 92.0° (Epoch: 22 June)

Event Time Altitude Azimuth Distance (km) Brightness Sun altitude
Exits shadow 21:14:58 12° 157° (SSE) 1,933 6.0 -9.5°
Maximum altitude 21:19:05 57° 80° (E) 772 4.4 -9.9°
Drops below altitude 10° 21:23:34 10° 2° (N) 2,084 7.6 -10.3°
Sets 21:25:51 0° 359° (N) 3,005 8.6 -10.5°
